TimeEDT,TemperatureF,Dew PointF,Humidity,Sea Level PressureIn,VisibilityMPH,Wind Direction,Wind SpeedMPH,Gust SpeedMPH,PrecipitationIn,Events,Conditions,WindDirDegrees,DateUTC
12:54 AM,39.0,34.0,82,29.90,10.0,WSW,11.5,-,N/A,,Overcast,250,2013-04-13 04:54:00
1:54 AM,39.0,34.0,82,29.91,10.0,WSW,12.7,-,N/A,,Overcast,250,2013-04-13 05:54:00
2:54 AM,37.9,34.0,86,29.91,10.0,WSW,9.2,-,N/A,,Overcast,240,2013-04-13 06:54:00
3:54 AM,39.0,35.1,86,29.90,10.0,SW,11.5,-,N/A,,Overcast,220,2013-04-13 07:54:00
4:54 AM,37.9,35.1,89,29.90,6.0,WSW,17.3,25.3,0.00,Rain,Light Rain,250,2013-04-13 08:54:00
5:05 AM,37.4,35.6,93,29.88,8.0,WSW,12.7,-,0.00,,Light Drizzle,250,2013-04-13 09:05:00
5:54 AM,37.0,35.1,93,29.89,10.0,WSW,12.7,-,0.00,,Overcast,240,2013-04-13 09:54:00
6:54 AM,37.0,35.1,93,29.90,8.0,WSW,10.4,-,N/A,,Overcast,250,2013-04-13 10:54:00
7:41 AM,37.4,35.6,93,29.89,7.0,WSW,10.4,-,0.00,,Light Drizzle,250,2013-04-13 11:41:00
7:54 AM,37.0,35.1,93,29.91,8.0,WSW,10.4,-,0.00,,Light Drizzle,240,2013-04-13 11:54:00
8:41 AM,37.4,33.8,87,29.90,9.0,WSW,11.5,-,0.00,,Light Drizzle,250,2013-04-13 12:41:00
8:54 AM,37.0,35.1,93,29.92,3.0,West,15.0,-,0.00,Rain,Light Rain,260,2013-04-13 12:54:00
9:30 AM,37.4,35.6,93,29.90,10.0,WSW,11.5,20.7,0.02,,Overcast,250,2013-04-13 13:30:00
9:54 AM,37.9,35.1,89,29.92,10.0,WSW,12.7,-,0.02,,Overcast,240,2013-04-13 13:54:00
10:45 AM,39.2,33.8,81,29.91,7.0,WSW,15.0,-,0.00,,Light Drizzle,240,2013-04-13 14:45:00
10:54 AM,39.0,34.0,82,29.92,9.0,WSW,18.4,24.2,0.00,Rain,Light Rain,240,2013-04-13 14:54:00
11:54 AM,39.0,34.0,82,29.94,10.0,West,18.4,-,0.00,,Light Drizzle,260,2013-04-13 15:54:00
12:34 PM,37.4,33.8,87,29.93,10.0,West,20.7,28.8,0.01,,Overcast,260,2013-04-13 16:34:00
12:41 PM,37.4,33.8,87,29.93,10.0,West,20.7,28.8,0.01,,Overcast,260,2013-04-13 16:41:00
12:54 PM,37.9,34.0,86,29.96,9.0,West,21.9,28.8,0.01,,Overcast,260,2013-04-13 16:54:00
1:54 PM,37.0,32.0,82,29.97,10.0,West,16.1,27.6,0.00,,Overcast,260,2013-04-13 17:54:00
2:42 PM,39.2,30.2,70,29.95,10.0,West,20.7,32.2,N/A,,Overcast,270,2013-04-13 18:42:00
2:54 PM,39.0,30.9,73,29.98,10.0,West,23.0,29.9,N/A,,Overcast,270,2013-04-13 18:54:00
3:54 PM,39.9,30.9,70,29.99,10.0,West,23.0,32.2,N/A,,Overcast,270,2013-04-13 19:54:00
4:54 PM,41.0,30.9,67,29.99,10.0,West,19.6,28.8,N/A,,Mostly Cloudy,260,2013-04-13 20:54:00
5:54 PM,42.1,30.9,65,30.00,10.0,West,18.4,25.3,N/A,,Mostly Cloudy,260,2013-04-13 21:54:00
6:54 PM,43.0,32.0,65,30.00,10.0,West,12.7,-,N/A,,Mostly Cloudy,260,2013-04-13 22:54:00
7:54 PM,42.8,32.0,66,29.98,10.0,WSW,10.4,-,N/A,,Mostly Cloudy,250,2013-04-13 23:54:00
8:54 PM,37.9,32.0,79,30.00,10.0,SSW,8.1,-,N/A,,Mostly Cloudy,210,2013-04-14 00:54:00
9:54 PM,37.9,34.0,86,30.02,10.0,SW,6.9,-,N/A,,Mostly Cloudy,220,2013-04-14 01:54:00
10:54 PM,37.0,33.1,86,30.02,10.0,SSW,8.1,-,N/A,,Partly Cloudy,200,2013-04-14 02:54:00
11:54 PM,36.0,32.0,86,30.02,10.0,SSW,6.9,-,N/A,,Scattered Clouds,210,2013-04-14 03:54:00